Location: Newark
(43.0000°N, 1.6781°W)
Time: 00:04:26
(UTC+00:00)

Vanguard 1 Rocket - Pass Details

Date: 19 April 2021
Orbit: 652 x 4224 km, 34.3° (Epoch: 10 May)

Event Time Altitude Azimuth Distance (km) Brightness Sun altitude
Rises 13:44:46 0° 234° (SW) 3,849 11.2 51.8°
Reaches altitude 10° 13:48:20 10° 221° (SW) 2,513 10.5 51.3°
Maximum altitude 13:52:35 23° 169° (S) 1,487 9.2 50.8°
Drops below altitude 10° 13:56:07 10° 116° (ESE) 2,056 9.2 50.4°
Sets 13:58:42 0° 100° (E) 2,974 9.8 50.0°
